Texarkana, AR

8:58 AM CDT on April 25, 2017 (GMT -0500)
Texarkana Regional-Webb

Weather History for KTXK - January, 2014

Change the Weather History Date:

Friday, January 10, 2014

  Actual Average Record
Temperature  
Mean Temperature 51 °F 43 °F  
Max Temperature 61 °F 53 °F 77 °F (2017)
Min Temperature 41 °F 34 °F 0 °F (1962)
Degree Days  
Heating Degree Days 14 22  
Month to date heating degree days 278 220  
Since 1 July heating degree days 1442 1287  
Cooling Degree Days 0 0  
Month to date cooling degree days 0 0  
Year to date cooling degree days 0 0  
Growing Degree Days 1 (Base 50)    
Moisture  
Dew Point 54 °F    
Average Humidity 90    
Maximum Humidity 100    
Minimum Humidity 80    
Precipitation  
Precipitation 0.41 in 0.11 in 1.73 in (1937)
Month to date precipitation 0.73 1.22  
Year to date precipitation 0.73 1.22  
Snow  
Snow 0.00 in - - ()
Month to date snowfall T  
Since 1 July snowfall 0.1  
Snow Depth 0.00 in    
Sea Level Pressure  
Sea Level Pressure 29.84 in    
Wind  
Wind Speed 8 mph (South)    
Max Wind Speed 30 mph    
Max Gust Speed 39 mph    
Visibility 5 miles    
Events Rain , Thunderstorm    
T = Trace of Precipitation, MM = Missing Value Source: NWS Daily Summary

Daily Weather History Graph

Daily Weather History Graph

Search for Another Location

Airport or City:

Trip Planner

Search our weather history database for the weather conditions in past years. The results will help you decide how hot, cold, wet, or windy it might be!

Date:

Astronomy

Jan. 10, 2014 Rise Set
Actual Time 7:20 AM CST 5:26 PM CST
Civil Twilight 6:53 AM CST 5:53 PM CST
Nautical Twilight 6:22 AM CST 6:24 PM CST
Astronomical Twilight 5:52 AM CST 6:54 PM CST
Moon 1:27 PM CST (1/10) 2:33 AM CST (1/10)
Length of Visible Light 11h 00m
Length of Day
10h 06m
Waxing Gibbous, 75% of the Moon is Illuminated
Jan 10
Waxing Gibbous
Jan 15
Full
Jan 23
Last Quarter
Jan 30
New
Feb 6
First Quarter

Hourly Weather History & Observations

Time (CST) Temp. Windchill Dew Point Humidity Pressure Visibility Wind Dir Wind Speed Gust Speed Precip Events Conditions
12:23 AM 41.0 °F 39.0 °F 39.2 °F 93% 30.08 in 2.5 mi East 3.5 mph - N/A   Overcast
12:49 AM 42.8 °F 41.1 °F 41.0 °F 93% 30.07 in 2.5 mi East 3.5 mph - N/A   Overcast
12:53 AM 42.1 °F 40.2 °F 41.0 °F 96% 30.07 in 2.5 mi Variable 3.5 mph - N/A   Overcast
1:00 AM 42.8 °F 41.1 °F 41.0 °F 93% 30.07 in 3.0 mi ENE 3.5 mph - N/A   Overcast
1:09 AM 42.8 °F - 41.0 °F 93% 30.06 in 2.5 mi Calm Calm - N/A   Overcast
1:53 AM 42.1 °F 40.2 °F 41.0 °F 96% 30.05 in 2.0 mi ESE 3.5 mph - 0.00 in   Overcast
2:53 AM 44.1 °F 42.5 °F 43.0 °F 96% 30.04 in 2.5 mi SE 3.5 mph - N/A   Overcast
3:05 AM 48.2 °F - 48.2 °F 100% 30.03 in 5.0 mi SSE 8.1 mph - N/A   Overcast
3:21 AM 51.8 °F - 48.2 °F 88% 30.03 in 7.0 mi South 12.7 mph - N/A   Overcast
3:31 AM 51.8 °F - 50.0 °F 94% 30.03 in 8.0 mi SSE 12.7 mph - N/A   Overcast
3:40 AM 51.8 °F - 51.8 °F 100% 30.02 in 8.0 mi South 9.2 mph - 0.00 in   Overcast
3:53 AM 53.1 °F - 51.1 °F 93% 30.01 in 9.0 mi SSE 13.8 mph 19.6 mph 0.00 in   Overcast
4:20 AM 53.6 °F - 51.8 °F 94% 30.00 in 10.0 mi South 13.8 mph - N/A   Overcast
4:42 AM 53.6 °F - 51.8 °F 94% 30.01 in 10.0 mi South 10.4 mph - N/A Thunderstorm Overcast
4:49 AM 53.6 °F - 51.8 °F 94% 30.01 in 10.0 mi South 10.4 mph - N/A Thunderstorm Overcast
4:53 AM 53.1 °F - 52.0 °F 96% 30.00 in 10.0 mi South 10.4 mph 20.7 mph N/A   Overcast
5:53 AM 53.1 °F - 52.0 °F 96% 29.97 in 6.0 mi SSE 9.2 mph - 0.00 in   Overcast
6:53 AM 54.0 °F - 52.0 °F 93% 29.97 in 7.0 mi South 9.2 mph - N/A   Overcast
7:53 AM 54.0 °F - 53.1 °F 97% 29.95 in 7.0 mi South 13.8 mph - N/A   Overcast
8:53 AM 54.0 °F - 53.1 °F 97% 29.95 in 5.0 mi South 13.8 mph 20.7 mph N/A   Overcast
9:18 AM 53.6 °F - 53.6 °F 100% 29.93 in 2.5 mi South 11.5 mph - N/A   Overcast
9:53 AM 55.0 °F - 53.1 °F 93% 29.92 in 2.5 mi South 13.8 mph 24.2 mph N/A   Overcast
10:05 AM 55.4 °F - 53.6 °F 94% 29.91 in 3.0 mi South 10.4 mph - N/A   Overcast
10:39 AM 55.4 °F - 53.6 °F 94% 29.90 in 7.0 mi South 11.5 mph 20.7 mph N/A   Overcast
10:53 AM 55.9 °F - 54.0 °F 93% 29.89 in 8.0 mi South 12.7 mph - N/A   Overcast
11:32 AM 55.4 °F - 53.6 °F 94% 29.90 in 2.0 mi SSW 4.6 mph - 0.05 in Rain Rain
11:50 AM 55.4 °F - 55.4 °F 100% 29.86 in 3.0 mi SSE 4.6 mph - 0.07 in Rain Light Rain
11:51 AM 55.9 °F - 55.0 °F 97% 29.86 in 4.0 mi SSE 4.6 mph - 0.07 in Rain Light Rain
12:00 PM 55.4 °F - 55.4 °F 100% 29.85 in 4.0 mi SE 5.8 mph - 0.00 in Rain Light Rain
12:37 PM 55.4 °F - 55.4 °F 100% 29.83 in 2.0 mi SE 4.6 mph - 0.02 in Rain Rain
12:49 PM 55.4 °F - 55.4 °F 100% 29.81 in 4.0 mi SE 3.5 mph - 0.02 in Rain Light Rain
12:53 PM 55.9 °F - 55.0 °F 97% 29.81 in 4.0 mi SE 4.6 mph - 0.02 in Rain Light Rain
1:53 PM 57.0 °F - 55.9 °F 96% 29.77 in 3.0 mi Calm Calm - 0.01 in   Overcast
2:01 PM 57.2 °F - 55.4 °F 94% 29.77 in 2.5 mi SSE 3.5 mph - 0.00 in Rain Light Rain
2:18 PM 57.2 °F - 57.2 °F 100% 29.75 in 1.8 mi SE 6.9 mph - 0.00 in Rain Light Rain
2:30 PM 57.2 °F - 57.2 °F 100% 29.74 in 2.5 mi SSE 6.9 mph - 0.00 in Rain Light Rain
2:39 PM 57.2 °F - 57.2 °F 100% 29.74 in 3.0 mi South 5.8 mph - 0.00 in Rain Light Rain
2:53 PM 59.0 °F - 57.0 °F 93% 29.73 in 3.0 mi South 8.1 mph - 0.01 in Rain Light Rain
3:02 PM 59.0 °F - 57.2 °F 94% 29.73 in 1.8 mi South 6.9 mph - 0.00 in Rain Light Rain
3:13 PM 59.0 °F - 57.2 °F 94% 29.72 in 2.5 mi South 5.8 mph - 0.02 in Rain Light Rain
3:24 PM 59.0 °F - 57.2 °F 94% 29.73 in 1.8 mi SSW 4.6 mph - 0.02 in Rain Light Rain
3:46 PM 60.8 °F - 57.2 °F 88% 29.72 in 2.0 mi South 6.9 mph - 0.04 in Rain Light Rain
3:53 PM 60.1 °F - 57.9 °F 93% 29.71 in 2.5 mi South 5.8 mph - 0.04 in Rain Light Rain
4:04 PM 59.0 °F - 57.2 °F 94% 29.76 in 1.2 mi West 10.4 mph - 0.01 in Rain Light Rain
4:07 PM 59.0 °F - 57.2 °F 94% 29.75 in 0.8 mi West 6.9 mph - 0.07 in Rain Rain
4:24 PM 57.2 °F - 57.2 °F 100% 29.73 in 1.0 mi SSE 8.1 mph - 0.20 in Rain Heavy Rain
4:41 PM 57.2 °F - 57.2 °F 100% 29.72 in 2.0 mi SSE 5.8 mph - 0.24 in Rain Light Rain
4:53 PM 59.0 °F - 57.0 °F 93% 29.71 in 4.0 mi South 6.9 mph - 0.24 in   Overcast
5:53 PM 59.0 °F - 57.9 °F 96% 29.70 in 7.0 mi South 6.9 mph - 0.00 in   Overcast
6:04 PM 59.0 °F - 57.2 °F 94% 29.71 in 7.0 mi South 8.1 mph - N/A   Overcast
6:23 PM 59.0 °F - 57.2 °F 94% 29.71 in 7.0 mi South 6.9 mph - N/A   Overcast
6:53 PM 59.0 °F - 59.0 °F 100% 29.71 in 5.0 mi SSW 4.6 mph - N/A   Overcast
7:26 PM 60.8 °F - 59.0 °F 94% 29.71 in 7.0 mi SSW 9.2 mph - N/A   Overcast
7:46 PM 60.8 °F - 59.0 °F 94% 29.72 in 7.0 mi SSW 5.8 mph - N/A   Overcast
7:53 PM 60.1 °F - 59.0 °F 96% 29.72 in 6.0 mi South 8.1 mph - N/A   Overcast
8:11 PM 60.8 °F - 59.0 °F 94% 29.72 in 8.0 mi SSW 8.1 mph - N/A   Mostly Cloudy
8:53 PM 61.0 °F - 59.0 °F 93% 29.72 in 9.0 mi SW 8.1 mph - N/A   Overcast
9:04 PM 60.8 °F - 59.0 °F 94% 29.73 in 9.0 mi SSW 10.4 mph - N/A   Overcast
9:11 PM 60.8 °F - 59.0 °F 94% 29.72 in 10.0 mi SSW 10.4 mph - N/A   Overcast
9:27 PM 60.8 °F - 59.0 °F 94% 29.74 in 9.0 mi WSW 6.9 mph - N/A   Overcast
9:36 PM 60.8 °F - 59.0 °F 94% 29.74 in 9.0 mi WSW 5.8 mph - N/A   Overcast
9:53 PM 61.0 °F - 59.0 °F 93% 29.74 in 9.0 mi SSW 10.4 mph - N/A   Overcast
10:06 PM 60.8 °F - 59.0 °F 94% 29.74 in 10.0 mi WSW 8.1 mph - N/A   Overcast
10:21 PM 60.8 °F - 59.0 °F 94% 29.76 in 10.0 mi NW 21.9 mph 29.9 mph N/A   Overcast
10:29 PM 60.8 °F - 51.8 °F 72% 29.77 in 9.0 mi West 15.0 mph 39.1 mph 0.02 in Rain Light Rain
10:33 PM 57.2 °F - 51.8 °F 82% 29.77 in 7.0 mi West 13.8 mph 32.2 mph 0.02 in Rain Rain
10:53 PM 57.0 °F - 51.1 °F 81% 29.77 in 10.0 mi West 9.2 mph - 0.02 in   Overcast
11:53 PM 54.0 °F - 48.9 °F 83% 29.79 in 10.0 mi NW 9.2 mph - 0.00 in   Mostly Cloudy